Preview of NWS' New Version of Forecast
This preview is not operational and should not be used for support decisions.

Regional Weather Roundup (RWR)

Issued by National Weather Service (NWS)

                            
000
ASUS44 KJAN 200910
RWRMS 

MISSISSIPPI HOURLY WEATHER ROUNDUP
NATIONAL WEATHER SERVICE JACKSON MS
300 AM CST WED FEB 20 2019

NOTE: "FAIR: INDICATES FEW OR NO CLOUDS BELOW 12,000 FEET WITH NO
SIGNIFICANT WEATHER AND/OR OBSTRUCTIONS TO VISIBILITY.

MSZ001>002-007>008-010>013-018>021-025>028-034>036-201000-
NORTHWEST MISSISSIPPI
  
CITY           SKY/WX    TMP DP  RH WIND       PRES   REMARKS
BATESVILLE     RAIN      52  52 100 W5        29.84R                  
CLARKSDALE     CLOUDY    45  45 100 N8        29.85F FOG              
CLEVELAND      TSTM      45  45 100 N12       29.83F                  
GREENWOOD      TSTM      60  58  92 VRB6      29.80R FOG              
GREENVILLE     LGT RAIN  47  45  93 NW8       29.83S                  
OLIVE BRANCH   CLOUDY    41 N/A N/A N9        29.87R HAZE             
OXFORD         HVY RAIN  50  50 100 SE10G28   29.82F                  
TUNICA         RAIN      37  37 100 N9        29.87F WCI  31          
WINONA         CLOUDY    55  55 100 S7        29.83S THUNDER FOG      
$$

MSZ003>006-009-014>017-022>024-029>033-037>039-201000-
NORTHEAST MISSISSIPPI
  
CITY           SKY/WX    TMP DP  RH WIND       PRES   REMARKS
ABERDEEN       CLOUDY    52  52 100 SE16G24   29.89F FOG              
COLUMBUS AFB   CLOUDY    52  52 100 SE20      29.88F                  
CORINTH        DRIZZLE   50  50 100 S14       29.84R                  
GOLDN TRIANGLE   N/A    N/A N/A N/A MISG        N/A                   
STARKVILLE     CLOUDY    50  50 100 SE14G22   29.90F                  
TUPELO         CLOUDY    52  50  93 S14G23    29.85F FOG              
$$

MSZ040-058-201000-
CENTRAL MISSISSIPPI
  
CITY           SKY/WX    TMP DP  RH WIND       PRES   REMARKS
JACKSON INTL   CLOUDY    61  60  97 S12       29.84F THUNDER FOG      
JACKSON HAWKNS CLOUDY    62  61  96 SE13      29.84F THUNDER FOG      
MADISON        CLOUDY    59  59 100 SE7       29.83F                  
MERIDIAN KEY   CLOUDY    61  58  90 SE10      29.91F                  
MERIDIAN NAS   CLOUDY    57  55  93 SE12G21   29.93F FOG              
RAYMOND        CLOUDY    63  63 100 S10G17    29.81F                  
VICKSBURG VKS  CLOUDY    64  64 100 S10G20    29.78F                  
$$

MSZ059>079-201000-
SOUTH MISSISSIPPI
  
CITY           SKY/WX    TMP DP  RH WIND       PRES   REMARKS
HATTIESBURG    LGT RAIN  64  63  96 SE8       29.91F FOG              
LAUREL         CLOUDY    64  64 100 SE8       29.89F                  
MCCOMB         CLOUDY    69  67  93 S16       29.86F                  
NATCHEZ        CLOUDY    70  66  88 S17       29.80F                  
PINE BELT      CLOUDY    64  64 100 S10       29.90F FOG              
$$

MSZ080>082-201000-
COASTAL MISSISSIPPI
  
CITY           SKY/WX    TMP DP  RH WIND       PRES   REMARKS
BILOXI         FOG       68  68 100 SE12      29.94S VSB 3/4          
PASCAGOULA     FOG       70  68  93 SE13      29.96F VSB 1            
GULFPORT       FOG       67  67 100 SE14      29.93F VSB 3/4          
$$

LAZ007>009-015>016-023>026-201000-
NORTHEAST LOUISIANA
  
CITY           SKY/WX    TMP DP  RH WIND       PRES   REMARKS
BASTROP        CLOUDY    43  42  98 NW8       29.84S FOG              
TALLULAH/VBURG TSTM      59  58  96 W6        29.80F                  
VIDALIA        RAIN      66  65  97 SW6       29.79S                  
$$